Weather Service Report


769 
FPUS83 KFGF 292031
OPUFGF
PRAIRIE TO PINES WEATHER ROUNDUP
NATIONAL WEATHER SERVICE EASTERN NORTH DAKOTA/GRAND FORKS ND
300 PM CDT FRI APR 29 2016

 **SATELLITE DATA USED TO AUGMENT SKY COVER AT AUTOMATED STATIONS**
 *****  WEATHER ACROSS EASTERN NORTH DAKOTA  *****
  
CITY           SKY/WX    TMP DP  RH WIND       PRES   REMARKS
GRAND FORKS    MOSUNNY   63  32  31 NE14G23   30.14F                  
GRAND FORKS AF SUNNY     63  30  29 E14G24    30.14F                  
GRAND CITY NWS NOT AVBL                                               
BUXTON           N/A     64  33  31 NE16G28     N/A                   
DEVILS LAKE    SUNNY     58  28  32 E14G21    30.16F                  
FARGO          SUNNY     63  31  30 E7G24     30.11R                  
WAHPETON ARPT  PTCLDY    61  32  33 SE8       30.11S                  
$$

 *****  WEATHER ACROSS CENTRAL AND WESTERN NORTH DAKOTA  *****
  
CITY           SKY/WX    TMP DP  RH WIND       PRES   REMARKS
JAMESTOWN      SUNNY     60  32  34 E14G21    30.12R                  
BISMARCK       MOSUNNY   60  34  37 SE14      30.12R                  
MINOT          SUNNY     64  19  17 E8        30.13F                  
MINOT AFB      SUNNY     60  24  25 E10G17    30.12F                  
GARRISON         N/A     60  24  25 E12G21    30.12S                  
WILLISTON      CLOUDY    57  28  33 SE13      30.13S                  
DICKINSON      CLOUDY    55  29  36 SE13G21   30.08F                  
HETTINGER      CLOUDY    53  31  42 E12       30.09F                  
$$

 *****  OTHER OBSERVATIONS NORTHEAST NORTH DAKOTA  *****
  
CITY           SKY/WX    TMP DP  RH WIND       PRES   REMARKS
WALHALLA       FAIR      59  32  36 E6        30.19F                  
LANGDON        FAIR      61  32  33 NE17      30.17F                  
CAVALIER       FAIR      59  32  36 NE9       30.18F                  
GRAFTON        FAIR      61  32  33 E16G22    30.17F                  
CANDO          FAIR      61  23  23 E10G17    30.18F                  
FORT TOTTEN      N/A     59  28  30 NE8       29.95S                  
ROLLA          FAIR      57  23  26 E14       30.18F                  
RUGBY          FAIR      59  27  29 E17       30.14F                  
 ***** THE ABOVE OBSERVATIONS ARE NON NWS ARE NOT QUALITY
        CONTROLLED AND MAY MIS-REPORT RAIN FOR SNOW...
$$

 *****  OTHER OBSERVATIONS SOUTHEAST NORTH DAKOTA *****
  
CITY           SKY/WX    TMP DP  RH WIND       PRES   REMARKS
COOPERSTOWN    NOT AVBL                                               
VALLEY CITY    FAIR      59  32  36 E17G23    30.14S                  
OAKES            N/A    N/A N/A N/A MISG        N/A                   
GWINNER        FAIR      63  36  36 E13       30.11S                  
BUFFALO          N/A     62  28  27 NE14        N/A                   
WYNDMERE         N/A     61  37  41 E7          N/A                   
 ***** THE ABOVE OBSERVATIONS ARE NON NWS ARE NOT QUALITY
       CONTROLLED AND MAY MIS-REPORT RAIN FOR SNOW...
$$

  *****  WEATHER ACROSS NORTHERN MINNESOTA  *****     
  
CITY           SKY/WX    TMP DP  RH WIND       PRES   REMARKS
FLAG ISLAND    SUNNY     52  30  43 N13       30.20F                  
WARROAD        SUNNY     55  36  47 NE8       30.22F                  
ROSEAU         SUNNY     57  36  44 NE15G21   30.19F                  
HALLOCK        SUNNY     63  27  25 E15G21    30.17F                  
THF RVR FALLS  SUNNY     59  30  33 NE17      30.15F                  
HALSTAD        NOT AVBL                                               
FOSSTON        SUNNY     57  30  35 NE20G26   30.13F                  
BAUDETTE       MOSUNNY   58  32  37 N14       30.19F                  
WASKISH        SUNNY     59  34  38 NE7G17    30.15F                  
CROOKSTON      SUNNY     63  30  29 NE15      30.14F                  
$$
  *****  WEATHER ACROSS CENTRAL AND WEST MINNESOTA  *****     
  
CITY           SKY/WX    TMP DP  RH WIND       PRES   REMARKS
BEMIDJI        SUNNY     58  32  38 N9G16     30.12F                  
PARK RAPIDS    SUNNY     60  29  30 N9        30.10F                  
WADENA         SUNNY     59  34  38 E7        30.09F                  
DETROIT LAKES  SUNNY     61  32  33 E6        30.11S                  
MOORHEAD       SUNNY     63  32  31 NE14G20   30.11S                  
FERGUS FALLS   SUNNY     59  34  38 E9G16     30.08F                  
ELBOW LAKE     FAIR      57  35  43 E9        30.11F                  
MORRIS MN      PTSUNNY   57  39  51 SE9       30.11S                  
STAPLES        SUNNY     61  28  29 E6        30.10S                  
WHEATON        LGT RAIN  61  37  41 SE7       30.13S                  
$$
  *****  WEATHER ELSEWHERE ACROSS MINNESOTA  *****     
  
CITY           SKY/WX    TMP DP  RH WIND       PRES   REMARKS
DULUTH         MOSUNNY   51  30  44 E18       30.16F                  
INTRNTL FALLS  SUNNY     55  31  39 VRB7G16   30.19F                  
ELY            CLOUDY    48  28  46 N6        30.19F                  
CLOQUET        SUNNY     54  27  35 E14G20    30.14F                  
BRAINERD       SUNNY     59  31  34 E10G18    30.11F                  
HIBBING        MOSUNNY   53  29  39 E5        30.15F                  
ALEXANDRIA     CLOUDY    59  34  39 E9G18     30.11F                  
SAINT CLOUD    MOSUNNY   56  32  40 CALM      30.12R                  
MINNEAPOLIS    MOSUNNY   56  36  47 NE12      30.11F                  
$$

  *****  WEATHER ACROSS SOUTH DAKOTA  *****
  
CITY           SKY/WX    TMP DP  RH WIND       PRES   REMARKS
SIOUX FALLS    CLOUDY    50  39  66 SE14      30.13S                  
BROOKINGS      CLOUDY    48  37  66 E13       30.12S                  
WATERTOWN      CLOUDY    53  36  52 E14G21    30.11S                  
HURON          CLOUDY    52  39  61 SE14G22   30.12R                  
SISSETON         N/A     59  37  44 SE9       30.11F                  
ABERDEEN       PTSUNNY   59  36  42 E12       30.11S                  
MITCHELL       CLOUDY    50  40  68 SE20      30.13R                  
PIERRE         CLOUDY    50  37  61 E13G24    30.10S                  
MOBRIDGE       PTSUNNY   61  38  42 SE13      30.07S                  
RAPID CITY     CLOUDY    44  33  65 E12       30.08S                  
$$

  *****  SOME WEATHER IN NEARBY STATES *****
  
CITY           SKY/WX    TMP DP  RH WIND       PRES   REMARKS
GLASGOW MT     PTSUNNY   56  30  37 E16G24    30.06F                  
GREAT FALLS MT CLOUDY    50  30  46 NE6       29.93F                  
CHEYENNE WY    LGT SNOW  34  32  92 E8        29.94R VSB 3/4          
SCOTTSBLUFF NE CLOUDY    46  34  62 NE14      29.97F                  
OMAHA NE       CLOUDY    48  41  76 NE14      30.05F                  
DES MOINES IA  CLOUDY    50  41  71 NE9       30.08F                  
DAVENPORT IA   CLOUDY    51  41  68 E8        30.11R                  
CHICAGO IL     CLOUDY    50  39  66 NE9       30.09F                  
EAU CLAIRE WI  PTSUNNY   55  37  50 E9        30.11F                  
LA CROSSE WI   CLOUDY    55  39  54 N8        30.12S                  
$$

  *****  SOME NATIONAL WEATHER *****
  
CITY           SKY/WX    TMP DP  RH WIND       PRES   REMARKS
LA GUARDIA NY  CLOUDY    55  37  50 E12G21    30.09R                  
RALEIGH NC     MOSUNNY   76  60  57 E5        29.97F                  
ATLANTA GA     PTSUNNY   86  49  27 S3        29.95F                  
NEW ORLEANS LA MOSUNNY   85  70  60 S20G25    29.89S                  
OKLAHOMA CITY  CLOUDY    70  65  84 E10       29.62F                  
ALBUQUERQUE NM PTSUNNY   56  26  31 NW20G28   29.83S                  
SALT LAKE CITY PTSUNNY   56  34  43 NW8       29.87F                  
LOS ANGELES CA MOSUNNY   66  49  54 W13G18    30.02F                  
BOISE ID       MOSUNNY   61  38  42 NW13G22   29.87F                  
SEATTLE WA     PTSUNNY   56  43  61 VRB5      30.14S                  
$$

*** WEATHER ACROSS MANITOBA...SASKATCHEWAN AND ONTARIO ***
                ***ONTARIO***
  
CITY           SKY/WX    TMP DP  RH WIND       PRES   REMARKS
GERALDTON      CLOUDY    43  30  61 N9        30.21S                  
THUNDER BAY    CLOUDY    54  30  40 SE10      30.18R                  
SIOUX LOOKOUT  MOSUNNY   50  32  50 VRB6      30.23F                  
TORONTO        PTSUNNY   46  27  46 S7        30.08                   
BIG TROUT LK   CLOUDY    45  18  33 N12G18    30.29S                  
PICKLE LAKE    PTSUNNY   46  25  42 N8        30.25S                  
DRYDEN         MOSUNNY   54  28  37 NE8       30.21F                  
KENORA         MOSUNNY   55  27  33 E10       30.21F                  
$$      
                *** MANITOBA***
  
CITY           SKY/WX    TMP DP  RH WIND       PRES   REMARKS
BRANDON        MOSUNNY   59  18  20 E12G22    30.21F                  
DAUPHIN        SUNNY     59  21  23 NE10      30.26F                  
ISLAND LAKE    MOSUNNY   52  14  22 SW8       30.32F                  
PILOT MOUND      N/A     59  18  20 NE10G17     N/A                   
THE PAS        CLOUDY    61  19  20 SE9G21    30.27F                  
THOMPSON       PTSUNNY   55  21  26 S5        30.28F                  
WINNIPEG       MOSUNNY   61  28  29 NE12      30.22F                  
LYNN LAKE      SUNNY     64  23  20 SW13      30.19F                  
CHURCHILL      SUNNY     32  21  64 E12       30.45S WCI  23          
GILLAM         PTSUNNY   46  23  39 NE9       30.36F                  
$$
                ***SASKATCHEWAN***
  
CITY           SKY/WX    TMP DP  RH WIND       PRES   REMARKS
ESTEVAN        PTSUNNY   61  14  16 E9G18     30.14F                  
KINDERSLEY     MOSUNNY   63  18  17 SE21G28   30.05F                  
LLOYDMINSTER   MOSUNNY   63  21  20 SE17G28   30.05S                  
PRINCE ALBERT  PTSUNNY   63  19  19 S13G22    30.18S                  
REGINA         MOSUNNY   61  12  15 SE17G26   30.14F                  
YORKTON        SUNNY     61  18  18 SE12G21   30.21F                  
N. BATTLEFORD  SUNNY     64  18  16 SE21G41   30.11F   C1F1C2F2C3F3C4F4C5F5C6F6C7F7C8F8C9F9CaFaCbFbCcFcCdFdCe!

Return to Home page


Western Regional Climate Center, wrcc@dri.edu